カタログに戻る

PSLV DEB

運用中PO
NORAD 35346·DEBRIS·🇮🇳 India

打ち上げ Oct 22, 2001 から Satish Dhawan Space Centre

Loading…

次のパス (今後24時間)

TLE

経年Source: Space-Track

元期: Sep 4, 2026, 22:01 UTC

1 35346U 01049QE  26247.91736347  .00010479  00000-0  72752-3 0  9993
2 35346  98.8403 128.4147 0016749 146.0931 214.1366 15.05686349271845

AllMySatでPSLV DEBをリアルタイム追跡

Download on the App Store